Meteo Giornale » Osservazioni meteo Malta » Luqa
ore: 18:15 - Osservazioni Meteo Luqa
Lat. 35° 51' N Lon. 14° 29' E Alt. 91 metri s.l.m.
31 °C
Sereno
Temp. 24 Ore
27 °C
32 °C
Nord
14.8 Km/h
Dew point 23 °C
Umidità 62 %
Visibilità 10 Km
Il sole sorge alle ore 06:34
Il sole tramonta alle ore 19:30
| Data e Ora | Cielo e Fenomeni | T °C | DP °C | Um. % | Pres. hPa | Vis. km | Vento km/h | |
|---|---|---|---|---|---|---|---|---|
| Oggi h: 18:15 | Sereno | 31 | 23 | 62 | 1016 | 10 | N 14.8 | |
| Oggi h: 17:45 | Sereno | 31 | 23 | 62 | 1016 | 10 | N/NE 13 | |
| Oggi h: 17:15 | Poco Nuvoloso | 31 | 23 | 62 | 1016 | 10 | N 11.1 | |
| Oggi h: 16:45 | Poco Nuvoloso | 32 | 23 | 59 | 1016 | 10 | N/NE 14.8 | |
| Oggi h: 16:15 | Poco Nuvoloso | 31 | 23 | 62 | 1016 | 10 | N/NE 14.8 | |
| Oggi h: 15:45 | Poco Nuvoloso | 32 | 24 | 62 | 1016 | 10 | N/NE 13 | |
| Oggi h: 15:15 | Poco Nuvoloso | 31 | 24 | 66 | 1017 | 10 | N/NE 14.8 | |
| Oggi h: 14:45 | Poco Nuvoloso | 32 | 23 | 59 | 1017 | 10 | N 14.8 | |
| Oggi h: 14:15 | Poco Nuvoloso | 32 | 23 | 59 | 1017 | 10 | N/NE 16.7 | |
| Oggi h: 13:45 | Poco Nuvoloso | 32 | 22 | 55 | 1017 | 10 | N 14.8 | |
| Oggi h: 13:15 | Poco Nuvoloso | 31 | 22 | 58 | 1017 | 10 | NE 16.7 | |
| Oggi h: 12:45 | Poco Nuvoloso | 31 | 22 | 58 | 1017 | 10 | N 14.8 | |
| Oggi h: 12:15 | Poco Nuvoloso | 32 | 22 | 55 | 1017 | 10 | N 18.5 | |
| Oggi h: 11:45 | Poco Nuvoloso | 32 | 21 | 52 | 1017 | 10 | N 18.5 | |
| Oggi h: 11:15 | Poco Nuvoloso | 32 | 23 | 59 | 1017 | 10 | N 14.8 | |
| Oggi h: 10:45 | Poco Nuvoloso | 31 | 23 | 62 | 1017 | 10 | NE 11.1 | |
| Oggi h: 10:15 | Poco Nuvoloso | 31 | 23 | 62 | 1017 | 10 | NE 14.8 | |
| Oggi h: 09:45 | Poco Nuvoloso | 30 | 24 | 70 | 1017 | 10 | N/NE 13 | |
| Oggi h: 09:15 | Nuvoloso | 30 | 24 | 70 | 1016 | 10 | N/NE 9.3 | |
| Oggi h: 08:45 | Nuvoloso | 30 | 24 | 70 | 1016 | 10 | E/NE 14.8 | |
| Oggi h: 08:15 | Nuvoloso | 29 | 25 | 79 | 1016 | 10 | E/NE 16.7 | |
| Oggi h: 07:45 | Poco Nuvoloso | 28 | 24 | 78 | 1015 | 10 | E/NE 16.7 | |
| Oggi h: 07:15 | Poco Nuvoloso | 28 | 25 | 83 | 1014 | 10 | NE 22.2 | |
| Oggi h: 06:45 | Poco Nuvoloso | 28 | 25 | 83 | 1014 | 10 | NE 18.5 | |
| Oggi h: 06:15 | Poco Nuvoloso | 27 | 25 | 88 | 1014 | 10 | N/NE 16.7 | |
| Oggi h: 05:45 | Poco Nuvoloso | 27 | 25 | 88 | 1014 | 10 | N 14.8 | |
| Oggi h: 05:15 | Sereno | 27 | 25 | 88 | 1014 | 10 | N/NO 13 | |
| Oggi h: 04:45 | Sereno | 27 | 24 | 83 | 1014 | 10 | N/NO 9.3 | |
| Oggi h: 04:15 | Sereno | 27 | 23 | 78 | 1014 | 10 | N/NO 11.1 | |
| Oggi h: 03:45 | Sereno | 28 | 24 | 78 | 1015 | 10 | N/NO 14.8 | |
| Oggi h: 03:15 | Sereno | 28 | 24 | 78 | 1015 | 10 | N/NO 14.8 | |
| Oggi h: 02:45 | Sereno | 28 | 24 | 78 | 1015 | 10 | N/NO 14.8 | |
| Oggi h: 02:15 | Sereno | 29 | 22 | 66 | 1015 | 10 | NO 20.3 | |
| Oggi h: 01:45 | Sereno | 28 | 24 | 78 | 1016 | 10 | NO 22.2 | |
| Oggi h: 01:15 | Sereno | 29 | 24 | 74 | 1016 | 10 | O/NO 25.9 | |
| Oggi h: 00:45 | Poco Nuvoloso | 29 | 23 | 70 | 1016 | 10 | O 20.3 | |
| Oggi h: 00:15 | Poco Nuvoloso | 29 | 23 | 70 | 1016 | 10 | O 22.2 | |
| Ieri h: 23:45 | Poco Nuvoloso | 29 | 22 | 66 | 1015 | 10 | O 11.1 | |
| Ieri h: 23:15 | Poco Nuvoloso | 29 | 24 | 74 | 1016 | 10 | O 14.8 | |
| Ieri h: 22:45 | Poco Nuvoloso | 29 | 24 | 74 | 1016 | 10 | O/NO 20.3 | |
| Ieri h: 22:15 | Poco Nuvoloso | 29 | 26 | 83 | 1016 | 10 | O/NO 22.2 | |
| Ieri h: 21:45 | Poco Nuvoloso | 29 | 26 | 83 | 1016 | 10 | O/NO 24 | |
| Ieri h: 21:15 | Sereno | 29 | 26 | 83 | 1015 | 10 | O/NO 22.2 | |
| Ieri h: 20:45 | Sereno | 29 | 26 | 83 | 1015 | 10 | O 14.8 | |
| Ieri h: 20:15 | Sereno | 30 | 25 | 74 | 1014 | 10 | O 13 | |
| Ieri h: 19:45 | Sereno | 30 | 25 | 74 | 1014 | 10 | O 11.1 | |
| Ieri h: 19:15 | Sereno | 31 | 24 | 66 | 1014 | 10 | O 13 | |
| Ieri h: 18:45 | Sereno | 32 | 24 | 62 | 1015 | 10 | O 14.8 | |



